Weather History for Salt Lake City, UT

Change the Weather History Date:

Monday, August 18, 2014

  Actual Average Record
Temperature  
Mean Temperature 80 °F 77 °F  
Max Temperature 94 °F 90 °F 99 °F (1932)
Min Temperature 65 °F 63 °F 45 °F (1954)
Degree Days  
Heating Degree Days 0 0  
Month to date heating degree days 0 0  
Since 1 June heating degree days 39 48  
Since 1 July heating degree days 0 2  
Cooling Degree Days 15 12  
Month to date cooling degree days 223 244  
Year to date cooling degree days 980 906  
Since 1 June cooling degree days 918 856  
Growing Degree Days 30 (Base 50)    
Moisture  
Dew Point 39 °F    
Average Humidity 30    
Maximum Humidity 48    
Minimum Humidity 12    
Precipitation  
Precipitation 0.00 in 0.02 in 0.90 in (1983)
Month to date precipitation 0.80 0.36  
Year to date precipitation 8.97 10.18  
Snow  
Snow 0.00 in 0.00 in - ()
Month to date snowfall 0.0 0.0  
Since 1 July snowfall 0.0 0.0  
Snow Depth 0.00 in    
Sea Level Pressure  
Sea Level Pressure 29.77 in    
Wind  
Wind Speed 6 mph (East)    
Max Wind Speed 15 mph    
Max Gust Speed 21 mph    
Visibility 10 miles    
Events      
T = Trace of Precipitation, MM = Missing Value Source: NWS Daily Summary

Daily Weather History Graph

Daily Weather History Graph

Search for Another Location

Airport:

Trip Planner

Search our weather history database for the weather conditions in past years. The results will help you decide how hot, cold, wet, or windy it might be!

Date:

Astronomy

Aug. 18, 2014 Rise Set
Actual Time 6:41 AM MDT 8:21 PM MDT
Civil Twilight 6:11 AM MDT 8:50 PM MDT
Nautical Twilight 5:36 AM MDT 9:25 PM MDT
Astronomical Twilight 4:58 AM MDT 10:03 PM MDT
Moon 12:50 AM MDT (8/18) 3:28 PM MDT (8/18)
Length of Visible Light 14h 38m
Length of Day
13h 40m
Last Quarter, 38% of the Moon is Illuminated
Aug 18
Last Quarter
Aug 25
New
Sep 2
First Quarter
Sep 8
Full
Sep 15
Last Quarter

Hourly Weather History & Observations

Time (MDT) Temp. Dew Point Humidity Pressure Visibility Wind Dir Wind Speed Gust Speed Precip Events Conditions
12:53 AM 72.0 °F 41.0 °F 33% 29.80 in 10.0 mi Calm Calm - N/A   Partly Cloudy
1:53 AM 69.1 °F 45.0 °F 42% 29.80 in 10.0 mi Calm Calm - N/A   Partly Cloudy
2:53 AM 66.9 °F 46.0 °F 47% 29.80 in 10.0 mi South 9.2 mph - N/A   Partly Cloudy
3:53 AM 71.1 °F 41.0 °F 34% 29.79 in 10.0 mi South 6.9 mph - N/A   Scattered Clouds
4:53 AM 70.0 °F 42.1 °F 36% 29.80 in 10.0 mi ESE 3.5 mph - N/A   Scattered Clouds
5:53 AM 69.1 °F 43.0 °F 39% 29.81 in 10.0 mi Calm Calm - N/A   Scattered Clouds
6:53 AM 69.1 °F 44.1 °F 40% 29.82 in 10.0 mi East 4.6 mph - N/A   Scattered Clouds
7:53 AM 73.0 °F 43.0 °F 34% 29.82 in 10.0 mi ESE 8.1 mph - N/A   Scattered Clouds
8:53 AM 77.0 °F 43.0 °F 30% 29.82 in 10.0 mi ESE 3.5 mph - N/A   Scattered Clouds
9:53 AM 79.0 °F 39.9 °F 25% 29.83 in 10.0 mi NNE 5.8 mph - N/A   Scattered Clouds
10:53 AM 84.9 °F 39.0 °F 20% 29.83 in 10.0 mi Variable 3.5 mph - N/A   Partly Cloudy
11:53 AM 88.0 °F 35.1 °F 15% 29.82 in 10.0 mi Variable 4.6 mph - N/A   Partly Cloudy
12:53 PM 91.0 °F 34.0 °F 13% 29.80 in 10.0 mi West 6.9 mph - N/A   Partly Cloudy
1:53 PM 91.0 °F 37.0 °F 15% 29.78 in 10.0 mi Variable 5.8 mph - N/A   Partly Cloudy
2:53 PM 93.0 °F 37.0 °F 14% 29.77 in 10.0 mi North 11.5 mph 18.4 mph N/A   Partly Cloudy
3:53 PM 93.0 °F 32.0 °F 12% 29.74 in 10.0 mi NW 11.5 mph - N/A   Partly Cloudy
4:53 PM 93.0 °F 35.1 °F 13% 29.72 in 10.0 mi North 9.2 mph - N/A   Partly Cloudy
5:53 PM 93.0 °F 30.9 °F 11% 29.70 in 10.0 mi North 10.4 mph - N/A   Partly Cloudy
6:53 PM 91.9 °F 30.0 °F 11% 29.69 in 10.0 mi NNE 8.1 mph - N/A   Partly Cloudy
7:53 PM 86.0 °F 33.1 °F 15% 29.68 in 10.0 mi North 6.9 mph - N/A   Scattered Clouds
8:53 PM 84.0 °F 33.1 °F 16% 29.68 in 10.0 mi Calm Calm - N/A   Scattered Clouds
9:53 PM 80.6 °F 37.4 °F 21% 29.87 in 10.0 mi South 8.1 mph - N/A   Scattered Clouds
10:53 PM 79.0 °F 39.0 °F 24% 29.68 in 10.0 mi SSE 11.5 mph - N/A   Mostly Cloudy
11:53 PM 81.0 °F 42.1 °F 25% 29.70 in 10.0 mi SSE 25.3 mph 32.2 mph N/A   Mostly Cloudy